This is the latest recevied weather packets stored in our database for station/object F4JYN. If no packets are shown the sender has not sent any weather packets the latest 10 day(s).
| Time | Temp. | Humidity | Pressure | Rain* | Wind** | Luminosity | Snow |
|---|---|---|---|---|---|---|---|
| 1787602731 | 21.67° C | 45% | 978.6 hPa | - | - | - | - |
| 1787602130 | 22.22° C | 45% | 978.6 hPa | - | - | - | - |
| 1787601529 | 22.22° C | 45% | 978.6 hPa | - | - | - | - |
| 1787600929 | 22.22° C | 45% | 978.4 hPa | - | - | - | - |
| 1787600328 | 22.22° C | 45% | 978.4 hPa | - | - | - | - |
| 1787599728 | 22.78° C | 45% | 978.5 hPa | - | - | - | - |
| 1787599128 | 22.22° C | 45% | 978.4 hPa | - | - | - | - |
| 1787598527 | 23.33° C | 45% | 978.2 hPa | - | - | - | - |
| 1787597927 | 22.78° C | 45% | 978.1 hPa | - | - | - | - |
| 1787597327 | 23.89° C | 45% | 978.1 hPa | - | - | - | - |
| 1787596726 | 23.89° C | 45% | 978 hPa | - | - | - | - |
| 1787596126 | 24.44° C | 45% | 978.1 hPa | - | - | - | - |
| 1787595526 | 25° C | 45% | 977.9 hPa | - | - | - | - |
| 1787594320 | 24.44° C | 45% | 977.9 hPa | - | - | - | - |
| 1787593719 | 24.44° C | 45% | 977.9 hPa | - | - | - | - |
| 1787592519 | 25.56° C | 45% | 977.9 hPa | - | - | - | - |
| 1787591918 | 25.56° C | 45% | 977.7 hPa | - | - | - | - |
| 1787591316 | 26.11° C | 45% | 977.6 hPa | - | - | - | - |
| 1787590715 | 24.44° C | 45% | 977.2 hPa | - | - | - | - |
| 1787590115 | 26.11° C | 45% | 977.2 hPa | - | - | - | - |
| 1787589515 | 25° C | 45% | 977.3 hPa | - | - | - | - |
| 1787588914 | 24.44° C | 45% | 977.6 hPa | - | - | - | - |
| 1787588314 | 23.89° C | 45% | 977.7 hPa | - | - | - | - |
| 1787587713 | 23.89° C | 45% | 977.9 hPa | - | - | - | - |
| 1787587113 | 23.89° C | 45% | 978.3 hPa | - | - | - | - |
* Rain since midnight (hover to see other rain measurements)
** Current wind speed in m/s (hover to see current wind gust speed)